Weather History for Danville, KY

Change the Weather History Date:

Tuesday, June 25, 2013

  Actual Average (KLEX) Record (KLEX)
Temperature  
Mean Temperature 78 °F 75 °F  
Max Temperature 89 °F 85 °F 101 °F (1988)
Min Temperature 66 °F 65 °F 45 °F (1979)
Degree Days  
Heating Degree Days 0 0  
Month to date heating degree days 8  
Since 1 June heating degree days 8  
Since 1 July heating degree days 4608  
Cooling Degree Days 12 10  
Month to date cooling degree days 190  
Year to date cooling degree days 297  
Since 1 June cooling degree days 190  
Growing Degree Days 28 (Base 50)    
Moisture  
Dew Point 68 °F    
Average Humidity 76    
Maximum Humidity 100    
Minimum Humidity 52    
Precipitation  
Precipitation 0.00 in 0.13 in 2.01 in (1918)
Month to date precipitation 3.79  
Year to date precipitation 23.12  
Snow  
Snow 0.00 in 0.00 in - ()
Month to date snowfall 0.0  
Since 1 June snowfall 0.0  
Since 1 July snowfall 13.0  
Snow Depth -    
Sea Level Pressure  
Sea Level Pressure 30.08 in    
Wind  
Wind Speed 4 mph (SW)    
Max Wind Speed 12 mph    
Max Gust Speed -    
Visibility 9 miles    
Events      
T = Trace of Precipitation, MM = Missing Value Source: NWS Daily Summary

Daily Weather History Graph

Daily Weather History Graph

Search for Another Location

Airport:

Trip Planner

Search our weather history database for the weather conditions in past years. The results will help you decide how hot, cold, wet, or windy it might be!

Date:

Astronomy

Jun. 25, 2013 Rise Set
Actual Time 6:19 AM EDT 9:04 PM EDT
Civil Twilight 5:47 AM EDT 9:35 PM EDT
Nautical Twilight 5:08 AM EDT 10:14 PM EDT
Astronomical Twilight 4:24 AM EDT 10:58 PM EDT
Moon 10:53 PM EDT (6/25) 8:55 AM EDT (6/25)
Length of Visible Light 15h 47m
Length of Day
14h 45m
Waning Gibbous, 93% of the Moon is Illuminated
Jun 25
Waning Gibbous
Jun 30
Last Quarter
Jul 8
New
Jul 15
First Quarter
Jul 22
Full

Hourly Weather History & Observations

Time (EDT) Temp. Heat Index Dew Point Humidity Pressure Visibility Wind Dir Wind Speed Gust Speed Precip Events Conditions
12:15 AM 68.0 °F - 66.2 °F 94% 30.14 in 10.0 mi Calm Calm - N/A   Clear
12:35 AM 68.0 °F - 66.2 °F 94% 30.13 in 10.0 mi Calm Calm - N/A   Clear
12:55 AM 68.0 °F - 66.2 °F 94% 30.13 in 10.0 mi Calm Calm - N/A   Clear
1:15 AM 66.2 °F - 64.4 °F 94% 30.12 in 7.0 mi Calm Calm - N/A   Clear
1:35 AM 66.2 °F - 66.2 °F 100% 30.12 in 7.0 mi Calm Calm - N/A   Clear
1:55 AM 66.2 °F - 66.2 °F 100% 30.11 in 7.0 mi South 3.5 mph - N/A   Clear
2:15 AM 66.2 °F - 64.4 °F 94% 30.10 in 7.0 mi SW 3.5 mph - N/A   Clear
2:35 AM 66.2 °F - 64.4 °F 94% 30.10 in 10.0 mi SW 3.5 mph - N/A   Clear
2:55 AM 68.0 °F - 64.4 °F 88% 30.11 in 10.0 mi South 3.5 mph - N/A   Clear
3:15 AM 66.2 °F - 64.4 °F 94% 30.11 in 10.0 mi Calm Calm - N/A   Clear
3:35 AM 66.2 °F - 64.4 °F 94% 30.10 in 10.0 mi SSW 4.6 mph - N/A   Clear
3:55 AM 68.0 °F - 64.4 °F 88% 30.09 in 10.0 mi SSW 4.6 mph - N/A   Clear
4:15 AM 66.2 °F - 64.4 °F 94% 30.10 in 7.0 mi SSW 5.8 mph - N/A   Clear
4:35 AM 68.0 °F - 64.4 °F 88% 30.10 in 7.0 mi SSW 6.9 mph - N/A   Clear
4:55 AM 68.0 °F - 64.4 °F 88% 30.10 in 7.0 mi SSW 4.6 mph - N/A   Clear
5:15 AM 66.2 °F - 64.4 °F 94% 30.09 in 7.0 mi SSW 4.6 mph - N/A   Clear
5:35 AM 66.2 °F - 64.4 °F 94% 30.10 in 7.0 mi SSW 4.6 mph - N/A   Clear
5:55 AM 66.2 °F - 64.4 °F 94% 30.10 in 7.0 mi SSW 5.8 mph - N/A   Clear
6:15 AM 66.2 °F - 64.4 °F 94% 30.11 in 7.0 mi SSW 5.8 mph - N/A   Clear
6:35 AM 66.2 °F - 64.4 °F 94% 30.11 in 7.0 mi SSW 5.8 mph - N/A   Clear
6:55 AM 66.2 °F - 64.4 °F 94% 30.12 in 7.0 mi SSW 5.8 mph - N/A   Scattered Clouds
7:15 AM 68.0 °F - 64.4 °F 88% 30.12 in 7.0 mi SSW 6.9 mph - N/A   Clear
7:35 AM 68.0 °F - 66.2 °F 94% 30.13 in 10.0 mi SSW 4.6 mph - N/A   Clear
7:55 AM 69.8 °F - 68.0 °F 94% 30.13 in 10.0 mi SSW 5.8 mph - N/A   Clear
8:15 AM 71.6 °F - 68.0 °F 88% 30.14 in 10.0 mi SSW 6.9 mph - N/A   Clear
8:35 AM 71.6 °F - 68.0 °F 88% 30.14 in 10.0 mi SSW 6.9 mph - N/A   Clear
8:55 AM 73.4 °F - 69.8 °F 88% 30.14 in 10.0 mi SSW 8.1 mph - N/A   Clear
9:15 AM 73.4 °F - 69.8 °F 88% 30.14 in 10.0 mi SSW 6.9 mph - N/A   Clear
9:35 AM 77.0 °F - 69.8 °F 78% 30.13 in 10.0 mi SSW 9.2 mph - N/A   Clear
9:55 AM 78.8 °F - 69.8 °F 74% 30.14 in 10.0 mi SSW 6.9 mph - N/A   Clear
10:15 AM 78.8 °F - 71.6 °F 78% 30.13 in 10.0 mi SW 6.9 mph - N/A   Scattered Clouds
10:35 AM 80.6 °F 83.9 °F 69.8 °F 70% 30.13 in 10.0 mi West 6.9 mph - N/A   Clear
10:55 AM 80.6 °F 83.9 °F 69.8 °F 70% 30.13 in 10.0 mi SW 5.8 mph - N/A   Scattered Clouds
11:15 AM 80.6 °F 84.6 °F 71.6 °F 74% 30.13 in 10.0 mi WSW 8.1 mph - N/A   Scattered Clouds
11:35 AM 82.4 °F 87.2 °F 71.6 °F 70% 30.13 in 10.0 mi SW 11.5 mph - N/A   Scattered Clouds
11:55 AM 82.4 °F 87.2 °F 71.6 °F 70% 30.12 in 10.0 mi WSW 9.2 mph - N/A   Mostly Cloudy
12:15 PM 82.4 °F 87.2 °F 71.6 °F 70% 30.12 in 10.0 mi West 8.1 mph - N/A   Mostly Cloudy
12:35 PM 84.2 °F 89.6 °F 71.6 °F 66% 30.13 in 10.0 mi SW 6.9 mph - N/A   Scattered Clouds
12:55 PM 86.0 °F 91.8 °F 71.6 °F 62% 30.12 in 10.0 mi WNW 8.1 mph - N/A   Scattered Clouds
1:15 PM 86.0 °F 91.8 °F 71.6 °F 62% 30.12 in 10.0 mi WSW 8.1 mph - N/A   Scattered Clouds
1:35 PM 86.0 °F 90.4 °F 69.8 °F 58% 30.11 in 10.0 mi West 3.5 mph - N/A   Scattered Clouds
1:55 PM 87.8 °F 93.8 °F 71.6 °F 58% 30.10 in 10.0 mi SW 5.8 mph - N/A   Scattered Clouds
2:15 PM 87.8 °F 92.6 °F 69.8 °F 55% 30.09 in 10.0 mi WSW 5.8 mph - N/A   Mostly Cloudy
2:35 PM 86.0 °F 90.4 °F 69.8 °F 58% 30.09 in 10.0 mi WSW 8.1 mph - N/A   Mostly Cloudy
2:55 PM 87.8 °F 92.6 °F 69.8 °F 55% 30.08 in 10.0 mi SW 6.9 mph - N/A   Mostly Cloudy
3:15 PM 87.8 °F 92.6 °F 69.8 °F 55% 30.08 in 10.0 mi SW 9.2 mph - N/A   Scattered Clouds
3:35 PM 87.8 °F 92.6 °F 69.8 °F 55% 30.07 in 10.0 mi West 3.5 mph - N/A   Scattered Clouds
3:55 PM 89.6 °F 94.7 °F 69.8 °F 52% 30.07 in 10.0 mi WSW 4.6 mph - N/A   Scattered Clouds
4:15 PM 89.6 °F 94.7 °F 69.8 °F 52% 30.06 in 10.0 mi SW 5.8 mph - N/A   Scattered Clouds
4:35 PM 87.8 °F 93.8 °F 71.6 °F 58% 30.06 in 10.0 mi SW 8.1 mph - N/A   Mostly Cloudy
4:55 PM 89.6 °F 94.7 °F 69.8 °F 52% 30.05 in 10.0 mi West 10.4 mph - N/A   Mostly Cloudy
5:15 PM 89.6 °F 96.2 °F 71.6 °F 55% 30.04 in 10.0 mi West 8.1 mph - N/A   Scattered Clouds
5:35 PM 89.6 °F 94.7 °F 69.8 °F 52% 30.02 in 10.0 mi WSW 8.1 mph - N/A   Clear
5:55 PM 89.6 °F 94.7 °F 69.8 °F 52% 30.02 in 10.0 mi West 8.1 mph - N/A   Clear
6:15 PM 87.8 °F 91.4 °F 68.0 °F 52% 30.02 in 10.0 mi West 9.2 mph - N/A   Clear
6:35 PM 87.8 °F 92.6 °F 69.8 °F 55% 30.02 in 10.0 mi WSW 8.1 mph - N/A   Clear
6:55 PM 87.8 °F 92.6 °F 69.8 °F 55% 30.01 in 10.0 mi SW 5.8 mph - N/A   Scattered Clouds
7:15 PM 84.2 °F 88.4 °F 69.8 °F 62% 30.01 in 10.0 mi SW 5.8 mph - N/A   Clear
7:35 PM 82.4 °F 86.3 °F 69.8 °F 66% 30.01 in 10.0 mi WSW 4.6 mph - N/A   Clear
7:55 PM 82.4 °F 86.3 °F 69.8 °F 66% 30.01 in 10.0 mi SW 5.8 mph - N/A   Clear
8:15 PM 82.4 °F 86.3 °F 69.8 °F 66% 30.00 in 10.0 mi SW 4.6 mph - N/A   Clear
8:35 PM 82.4 °F 87.2 °F 71.6 °F 70% 30.01 in 10.0 mi WSW 5.8 mph - N/A   Clear
8:55 PM 80.6 °F 84.6 °F 71.6 °F 74% 30.01 in 10.0 mi SW 5.8 mph - N/A   Clear
9:15 PM 78.8 °F - 69.8 °F 74% 30.00 in 10.0 mi SSW 4.6 mph - N/A   Clear
9:35 PM 78.8 °F - 69.8 °F 74% 30.00 in 10.0 mi SSW 4.6 mph - N/A   Clear
9:55 PM 78.8 °F - 69.8 °F 74% 30.00 in 10.0 mi SSW 3.5 mph - N/A   Clear
10:15 PM 77.0 °F - 69.8 °F 78% 30.01 in 10.0 mi Calm Calm - N/A   Clear
10:35 PM 77.0 °F - 69.8 °F 78% 30.02 in 10.0 mi SSW 3.5 mph - N/A   Clear
10:55 PM 75.2 °F - 69.8 °F 83% 30.02 in 10.0 mi SSW 3.5 mph - N/A   Clear
11:15 PM 75.2 °F - 69.8 °F 83% 30.02 in 10.0 mi South 4.6 mph - N/A   Clear
11:35 PM 75.2 °F - 69.8 °F 83% 30.02 in 10.0 mi SSW 5.8 mph - N/A   Clear
11:55 PM 75.2 °F - 69.8 °F 83% 30.02 in 10.0 mi SSW 4.6 mph - N/A   Clear